Time,TemperatureF,DewpointF,PressureIn,WindDirection,WindDirectionDegrees,WindSpeedMPH,WindSpeedGustMPH,Humidity,HourlyPrecipIn,Conditions,Clouds,dailyrainin,SoftwareType,DateUTC
2013-09-16 00:43:00,65.0,-99.9,-100.00,WNW,284,1.0,-999.0,-999,-99.99,,,-99.99,,2013-09-16 04:43:00,
2013-09-16 01:44:00,63.0,-99.9,-100.00,WNW,300,2.0,-999.0,-999,-99.99,,,-99.99,,2013-09-16 05:44:00,
2013-09-16 01:53:00,64.0,-99.9,-100.00,SSW,209,1.0,-999.0,-999,-99.99,,,0.00,,2013-09-16 05:53:00,
2013-09-16 02:03:00,64.0,-99.9,-100.00,SSW,209,1.0,-999.0,-999,-99.99,,,0.00,,2013-09-16 06:03:00,
2013-09-16 02:43:00,62.0,-99.9,-100.00,NW,308,2.0,-999.0,-999,-99.99,,,0.00,,2013-09-16 06:43:00,
2013-09-16 03:43:00,62.0,-99.9,-100.00,NW,313,1.0,-999.0,-999,-99.99,,,0.00,,2013-09-16 07:43:00,
2013-09-16 04:42:00,62.0,-99.9,-100.00,WSW,242,2.0,-999.0,-999,-99.99,,,0.00,,2013-09-16 08:42:00,
2013-09-16 05:43:00,61.0,-99.9,-100.00,WNW,289,1.0,-999.0,-999,-99.99,,,0.00,,2013-09-16 09:43:00,
2013-09-16 06:42:00,60.0,-99.9,-100.00,WNW,295,2.0,-999.0,-999,-99.99,,,0.00,,2013-09-16 10:42:00,
2013-09-16 07:42:00,61.0,-99.9,-100.00,West,264,1.0,-999.0,-999,-99.99,,,0.00,,2013-09-16 11:42:00,
2013-09-16 07:52:00,61.0,-99.9,-100.00,NW,313,2.0,-999.0,-999,-99.99,,,-99.99,,2013-09-16 11:52:00,
2013-09-16 08:02:00,61.0,-99.9,-100.00,NW,313,2.0,-999.0,-999,-99.99,,,-99.99,,2013-09-16 12:02:00,
2013-09-16 08:42:00,62.0,-99.9,-100.00,WSW,254,1.0,-999.0,-999,-99.99,,,0.00,,2013-09-16 12:42:00,
2013-09-16 08:52:00,62.0,-99.9,-100.00,SW,224,1.0,-999.0,-999,-99.99,,,0.00,,2013-09-16 12:52:00,
2013-09-16 09:11:00,62.0,-99.9,-100.00,SSW,197,2.0,-999.0,-999,-99.99,,,0.00,,2013-09-16 13:11:00,
2013-09-16 09:42:00,62.0,-99.9,-100.00,West,265,2.0,-999.0,-999,-99.99,,,0.00,,2013-09-16 13:42:00,
2013-09-16 09:53:00,63.0,-99.9,-100.00,West,270,1.0,-999.0,-999,-99.99,,,0.00,,2013-09-16 13:53:00,
2013-09-16 10:11:00,63.0,-99.9,-100.00,NW,318,1.0,-999.0,-999,-99.99,,,0.00,,2013-09-16 14:11:00,
2013-09-16 10:22:00,63.0,-99.9,-100.00,North,357,2.0,-999.0,-999,-99.99,,,0.00,,2013-09-16 14:22:00,
2013-09-16 10:42:00,63.0,-99.9,-100.00,SE,136,1.0,-999.0,-999,-99.99,,,0.00,,2013-09-16 14:42:00,
2013-09-16 11:12:00,65.0,-99.9,-100.00,South,187,1.0,-999.0,-999,-99.99,,,-99.99,,2013-09-16 15:12:00,
2013-09-16 11:43:00,67.0,-99.9,-100.00,SSE,158,1.0,-999.0,-999,-99.99,,,0.00,,2013-09-16 15:43:00,
2013-09-16 12:43:00,76.0,-99.9,-100.00,NW,319,3.0,-999.0,-999,-99.99,,,0.00,,2013-09-16 16:43:00,
2013-09-16 12:52:00,76.0,-99.9,-100.00,NW,319,3.0,-999.0,-999,-99.99,,,0.00,,2013-09-16 16:52:00,
2013-09-16 13:03:00,76.0,-99.9,-100.00,NW,319,3.0,-999.0,-999,-99.99,,,0.00,,2013-09-16 17:03:00,
2013-09-16 13:23:00,78.0,-99.9,-100.00,NNE,26,4.0,-999.0,-999,-99.99,,,-99.99,,2013-09-16 17:23:00,
2013-09-16 13:33:00,78.0,-99.9,-100.00,NNE,26,4.0,-999.0,-999,-99.99,,,-99.99,,2013-09-16 17:33:00,
2013-09-16 13:53:00,79.0,-99.9,-100.00,NNE,25,4.0,-999.0,-999,-99.99,,,-99.99,,2013-09-16 17:53:00,
2013-09-16 14:02:00,79.0,-99.9,-100.00,NNE,25,4.0,-999.0,-999,-99.99,,,-99.99,,2013-09-16 18:02:00,
2013-09-16 14:22:00,80.0,-99.9,-100.00,NE,35,5.0,-999.0,-999,-99.99,,,-99.99,,2013-09-16 18:22:00,
2013-09-16 14:42:00,80.0,-99.9,-100.00,NNE,29,6.0,-999.0,-999,-99.99,,,-99.99,,2013-09-16 18:42:00,
2013-09-16 14:52:00,80.0,-99.9,-100.00,NNE,29,6.0,-999.0,-999,-99.99,,,-99.99,,2013-09-16 18:52:00,
2013-09-16 15:01:00,80.0,-99.9,-100.00,NNE,29,6.0,-999.0,-999,-99.99,,,-99.99,,2013-09-16 19:01:00,
2013-09-16 15:22:00,80.0,-99.9,-100.00,NNE,16,4.0,-999.0,-999,-99.99,,,-99.99,,2013-09-16 19:22:00,
2013-09-16 15:42:00,81.0,-99.9,-100.00,North,358,4.0,-999.0,-999,-99.99,,,0.00,,2013-09-16 19:42:00,
2013-09-16 15:53:00,81.0,-99.9,-100.00,North,358,4.0,-999.0,-999,-99.99,,,0.00,,2013-09-16 19:53:00,
2013-09-16 16:03:00,81.0,-99.9,-100.00,North,358,4.0,-999.0,-999,-99.99,,,0.00,,2013-09-16 20:03:00,
2013-09-16 16:22:00,81.0,-99.9,-100.00,NNW,336,5.0,-999.0,-999,-99.99,,,-99.99,,2013-09-16 20:22:00,
2013-09-16 16:32:00,81.0,-99.9,-100.00,NNW,336,5.0,-999.0,-999,-99.99,,,-99.99,,2013-09-16 20:32:00,
2013-09-16 16:52:00,81.0,-99.9,-100.00,NNW,334,4.0,-999.0,-999,-99.99,,,-99.99,,2013-09-16 20:52:00,
2013-09-16 17:12:00,80.0,-99.9,-100.00,North,9,4.0,-999.0,-999,-99.99,,,-99.99,,2013-09-16 21:12:00,
2013-09-16 17:22:00,80.0,-99.9,-100.00,North,9,4.0,-999.0,-999,-99.99,,,-99.99,,2013-09-16 21:22:00,
2013-09-16 17:44:00,81.0,-99.9,-100.00,North,354,3.0,-999.0,-999,-99.99,,,-99.99,,2013-09-16 21:44:00,
2013-09-16 17:56:00,81.0,-99.9,-100.00,North,354,3.0,-999.0,-999,-99.99,,,-99.99,,2013-09-16 21:56:00,
2013-09-16 18:04:00,81.0,-99.9,-100.00,North,354,3.0,-999.0,-999,-99.99,,,-99.99,,2013-09-16 22:04:00,
2013-09-16 18:13:00,81.0,-99.9,-100.00,North,354,3.0,-999.0,-999,-99.99,,,-99.99,,2013-09-16 22:13:00,
2013-09-16 18:43:00,79.0,-99.9,-100.00,North,5,7.0,-999.0,-999,-99.99,,,-99.99,,2013-09-16 22:43:00,
2013-09-16 19:12:00,78.0,-99.9,-100.00,NNE,18,6.0,-999.0,-999,-99.99,,,-99.99,,2013-09-16 23:12:00,
2013-09-16 19:43:00,78.0,-99.9,-100.00,North,11,5.0,-999.0,-999,-99.99,,,-99.99,,2013-09-16 23:43:00,
2013-09-16 19:53:00,77.0,-99.9,-100.00,North,357,6.0,-999.0,-999,-99.99,,,-99.99,,2013-09-16 23:53:00,
2013-09-16 20:02:00,77.0,-99.9,-100.00,North,357,6.0,-999.0,-999,-99.99,,,-99.99,,2013-09-17 00:02:00,
2013-09-16 20:11:00,77.0,-99.9,-100.00,North,357,6.0,-999.0,-999,-99.99,,,-99.99,,2013-09-17 00:11:00,
2013-09-16 20:22:00,75.0,-99.9,-100.00,North,359,4.0,-999.0,-999,-99.99,,,-99.99,,2013-09-17 00:22:00,
2013-09-16 20:32:00,75.0,-99.9,-100.00,North,359,4.0,-999.0,-999,-99.99,,,-99.99,,2013-09-17 00:32:00,
2013-09-16 20:42:00,75.0,-99.9,-100.00,North,359,4.0,-999.0,-999,-99.99,,,-99.99,,2013-09-17 00:42:00,
2013-09-16 21:12:00,75.0,-99.9,-100.00,North,9,6.0,-999.0,-999,-99.99,,,-99.99,,2013-09-17 01:12:00,
2013-09-16 21:42:00,74.0,-99.9,-100.00,NNE,21,4.0,-999.0,-999,-99.99,,,-99.99,,2013-09-17 01:42:00,
2013-09-16 22:12:00,73.0,-99.9,-100.00,ENE,72,5.0,-999.0,-999,-99.99,,,-99.99,,2013-09-17 02:12:00,
2013-09-16 22:42:00,73.0,-99.9,-100.00,ENE,63,6.0,-999.0,-999,-99.99,,,-99.99,,2013-09-17 02:42:00,
2013-09-16 22:45:00,71.0,-99.9,-100.00,NE,45,5.0,-999.0,-999,-99.99,,,-99.99,,2013-09-17 02:45:00,
2013-09-16 22:53:00,72.0,-99.9,-100.00,NE,52,7.0,-999.0,-999,-99.99,,,-99.99,,2013-09-17 02:53:00,
2013-09-16 23:02:00,72.0,-99.9,-100.00,NE,52,7.0,-999.0,-999,-99.99,,,-99.99,,2013-09-17 03:02:00,
2013-09-16 23:12:00,72.0,-99.9,-100.00,NE,52,7.0,-999.0,-999,-99.99,,,-99.99,,2013-09-17 03:12:00,
2013-09-16 23:54:00,71.0,-99.9,-100.00,NNE,24,5.0,-999.0,-999,-99.99,,,-99.99,,2013-09-17 03:54:00,